Tracking 19146 objects as of 24-Apr-2018
HD Live streaming from Space Station
objects crossing your sky now

FENGYUN 1C DEB

Track FENGYUN 1C DEB now!
10-day predictions


NORAD ID: 29935
Int'l Code: 1999-025JH
Perigee: 747.1 km
Apogee: 966.4 km
Inclination: 98.4 °
Period: 101.9 minutes
Semi major axis: 7227 km
RCS: 0.0569 m2 (small)
Launch date: May 10, 1999
Source: People's Republic of China (PRC)
Launch site: Taiyaun Space Center, China (TSC)

Note: This is SATELLITE DEBRIS
aabbcc
Your satellite tracking list
Your tracking list is empty




NASA's NSSDC Master Catalog

Two Line Element Set (TLE):
1 29935U 99025JH  18113.43154066 +.00000034 +00000-0 +36511-4 0  9993
2 29935 098.3517 284.1310 0151718 303.5757 083.9805 14.12867656581301
Source of the keplerian elements: AFSPC